When you browse on this site, cookies collect data to enhance your experience and personalize the content and advertising you see.
Visit our Privacy Policy to learn more. By continuing to use the site, you agree to this use of cookies and data.
  • In Germany
  • List of Countries
  • For 7 days
  • Water Temperature
  • Satellite Maps
  • Weather Map
  • Weather Widgets
  • user-avatar
    Login

    Hourly Weather Muhlheim

    Today, 20 January, Sunday

    Time Temperature Precipitation Wind Pressure Humidity
    00:00 -3°C° 0 mm 2 mps 751 mmHg 63%
    01:00 -3°C° 0 mm 2 mps 751 mmHg 64%
    02:00 -3°C° 0 mm 2 mps 751 mmHg 65%
    03:00 -3°C° 0 mm 2 mps 750 mmHg 66%
    04:00 -3°C° 0 mm 2 mps 750 mmHg 67%
    05:00 -3°C° 0 mm 2 mps 750 mmHg 67%
    06:00 -4°C° 0 mm 2 mps 750 mmHg 68%
    07:00 -4°C° 0 mm 2 mps 751 mmHg 67%
    08:00 -4°C° 0 mm 2 mps 751 mmHg 66%
    09:00 -4°C° 0 mm 2 mps 751 mmHg 64%
    10:00 -3°C° 0 mm 2 mps 751 mmHg 63%
    11:00 -2°C° 0 mm 2 mps 752 mmHg 59%
    12:00 -2°C° 0 mm 2 mps 752 mmHg 56%
    13:00 -2°C° 0 mm 2 mps 752 mmHg 55%
    14:00 -2°C° 0 mm 2 mps 752 mmHg 56%
    15:00 -1°C° 0 mm 2 mps 752 mmHg 56%
    16:00 -1°C° 0 mm 2 mps 752 mmHg 57%
    17:00 0°C° 0 mm 1 mps 753 mmHg 60%
    18:00 -1°C° 0 mm 1 mps 753 mmHg 63%
    19:00 -1°C° 0 mm 1 mps 754 mmHg 66%
    20:00 -1°C° 0 mm 1 mps 754 mmHg 67%
    21:00 -1°C° 0 mm 1 mps 754 mmHg 67%
    22:00 -1°C° 0 mm 1 mps 755 mmHg 67%
    23:00 -2°C° 0 mm 1 mps 755 mmHg 68%

    Tomorrow, 21 January, Monday

    Time Temperature Precipitation Wind Pressure Humidity
    00:00 -2°C° 0 mm 1 mps 755 mmHg 69%
    01:00 -2°C° 0 mm 1 mps 756 mmHg 69%
    02:00 -2°C° 0 mm 1 mps 756 mmHg 70%
    03:00 -2°C° 0 mm 1 mps 756 mmHg 71%
    04:00 -2°C° 0 mm 1 mps 756 mmHg 71%
    05:00 -2°C° 0 mm 1 mps 756 mmHg 72%
    06:00 -2°C° 0 mm 1 mps 756 mmHg 72%
    07:00 -3°C° 0 mm 1 mps 756 mmHg 73%
    08:00 -2°C° 0 mm 1 mps 756 mmHg 71%
    09:00 -2°C° 0 mm 1 mps 757 mmHg 68%
    10:00 -1°C° 0 mm 1 mps 757 mmHg 66%
    11:00 0°C° 0 mm 1 mps 757 mmHg 62%
    12:00 0°C° 0 mm 0 mps 756 mmHg 58%
    13:00 0°C° 0 mm 0 mps 756 mmHg 54%
    14:00 0°C° 0 mm 0 mps 756 mmHg 55%
    15:00 0°C° 0 mm 0 mps 755 mmHg 56%
    16:00 0°C° 0 mm 0 mps 755 mmHg 57%
    17:00 -1°C° 0 mm 0 mps 755 mmHg 60%
    18:00 -1°C° 0 mm 0 mps 755 mmHg 63%
    19:00 -2°C° 0 mm 0 mps 755 mmHg 65%
    20:00 -2°C° 0 mm 0 mps 754 mmHg 66%
    21:00 -1°C° 0 mm 1 mps 754 mmHg 66%
    22:00 -1°C° 0 mm 1 mps 754 mmHg 67%
    23:00 -1°C° 0 mm 1 mps 754 mmHg 68%

    Day after tomorrow, 22 January, Tuesday

    Time Temperature Precipitation Wind Pressure Humidity
    00:00 -1°C° 0 mm 1 mps 753 mmHg 68%
    01:00 -2°C° 0 mm 1 mps 753 mmHg 69%
    02:00 -2°C° 0 mm 1 mps 752 mmHg 69%
    03:00 -2°C° 0 mm 1 mps 751 mmHg 69%
    04:00 -4°C° 0 mm 2 mps 750 mmHg 69%
    05:00 -4°C° 0 mm 2 mps 750 mmHg 69%
    06:00 -4°C° 0 mm 2 mps 749 mmHg 69%
    07:00 -4°C° 0 mm 2 mps 749 mmHg 69%
    08:00 -4°C° 0 mm 2 mps 748 mmHg 66%
    09:00 -3°C° 0 mm 2 mps 748 mmHg 64%
    10:00 -4°C° 0 mm 3 mps 747 mmHg 61%
    11:00 -2°C° 0 mm 3 mps 746 mmHg 58%
    12:00 -1°C° 0 mm 3 mps 745 mmHg 56%
    13:00 0°C° 0 mm 3 mps 745 mmHg 53%
    14:00 +1°C° 0 mm 2 mps 744 mmHg 54%
    15:00 +1°C° 0 mm 2 mps 743 mmHg 55%
    16:00 +2°C° 0 mm 1 mps 742 mmHg 56%
    17:00 -1°C° 0 mm 2 mps 742 mmHg 59%
    18:00 -2°C° 0 mm 2 mps 741 mmHg 62%
    19:00 -2°C° 0 mm 2 mps 741 mmHg 65%
    20:00 -2°C° 0 mm 2 mps 741 mmHg 67%
    21:00 0°C° 0 mm 1 mps 741 mmHg 70%
    22:00 0°C° 0 mm 1 mps 740 mmHg 72%
    23:00 -1°C° 0 mm 1 mps 740 mmHg 74%

    23 January, Wednesday

    Time Temperature Precipitation Wind Pressure Humidity
    00:00 -1°C° 0 mm 1 mps 740 mmHg 76%
    01:00 -1°C° 0 mm 1 mps 740 mmHg 78%
    02:00 -1°C° 0 mm 1 mps 739 mmHg 80%
    03:00 -1°C° 0 mm 1 mps 739 mmHg 81%
    04:00 -1°C° 0 mm 1 mps 739 mmHg 82%
    05:00 -1°C° 0 mm 1 mps 739 mmHg 82%
    06:00 -1°C° 0 mm 1 mps 739 mmHg 83%
    07:00 -1°C° 0 mm 1 mps 739 mmHg 83%
    08:00 -1°C° 0 mm 1 mps 740 mmHg 80%
    09:00 -1°C° 0 mm 1 mps 740 mmHg 78%
    10:00 0°C° 0 mm 1 mps 740 mmHg 75%
    11:00 0°C° 0 mm 1 mps 740 mmHg 70%
    12:00 +1°C° 0 mm 1 mps 741 mmHg 66%
    13:00 +2°C° 0 mm 1 mps 741 mmHg 61%
    14:00 +2°C° 0 mm 1 mps 741 mmHg 62%
    15:00 +2°C° 0 mm 1 mps 741 mmHg 63%
    16:00 +2°C° 0 mm 1 mps 741 mmHg 64%
    17:00 +1°C° 0 mm 1 mps 742 mmHg 67%
    18:00 0°C° 0 mm 1 mps 743 mmHg 71%
    19:00 0°C° 0 mm 1 mps 743 mmHg 74%
    20:00 0°C° 0 mm 1 mps 744 mmHg 75%
    21:00 -1°C° 0 mm 1 mps 744 mmHg 76%
    22:00 -1°C° 0 mm 1 mps 745 mmHg 76%
    23:00 -1°C° 0 mm 1 mps 745 mmHg 77%

    24 January, Thursday

    Time Temperature Precipitation Wind Pressure Humidity
    00:00 -1°C° 0 mm 1 mps 746 mmHg 77%
    01:00 -1°C° 0 mm 1 mps 746 mmHg 78%
    02:00 -1°C° 0 mm 1 mps 746 mmHg 79%
    03:00 -1°C° 0 mm 1 mps 747 mmHg 79%
    04:00 -1°C° 0 mm 1 mps 747 mmHg 80%
    05:00 -2°C° 0 mm 1 mps 747 mmHg 82%
    06:00 -2°C° 0 mm 1 mps 748 mmHg 83%
    07:00 -2°C° 0 mm 1 mps 748 mmHg 85%
    08:00 -2°C° 0 mm 0 mps 749 mmHg 83%
    09:00 -2°C° 0 mm 0 mps 749 mmHg 81%
    10:00 -1°C° 0 mm 0 mps 750 mmHg 79%
    11:00 -1°C° 0 mm 0 mps 750 mmHg 75%
    12:00 +1°C° 0 mm 1 mps 750 mmHg 71%
    13:00 +2°C° 0 mm 1 mps 750 mmHg 68%
    14:00 +2°C° 0 mm 1 mps 750 mmHg 69%
    15:00 +2°C° 0 mm 1 mps 750 mmHg 71%
    16:00 +2°C° 0 mm 1 mps 750 mmHg 72%
    17:00 +1°C° 0 mm 1 mps 751 mmHg 75%
    18:00 +1°C° 0 mm 1 mps 751 mmHg 77%
    19:00 0°C° 0 mm 1 mps 751 mmHg 80%
    20:00 0°C° 0 mm 1 mps 752 mmHg 81%
    21:00 0°C° 0 mm 1 mps 752 mmHg 83%
    22:00 0°C° 0 mm 1 mps 752 mmHg 84%
    23:00 0°C° 0 mm 1 mps 752 mmHg 85%

    25 January, Friday

    Time Temperature Precipitation Wind Pressure Humidity
    00:00 -1°C° 0 mm 1 mps 752 mmHg 86%
    01:00 -1°C° 0 mm 1 mps 752 mmHg 87%
    02:00 -1°C° 0 mm 1 mps 752 mmHg 87%
    03:00 -1°C° 0 mm 1 mps 752 mmHg 88%
    04:00 -1°C° 0 mm 1 mps 752 mmHg 88%
    05:00 -1°C° 0 mm 1 mps 752 mmHg 89%
    06:00 -1°C° 0 mm 1 mps 752 mmHg 90%
    07:00 -1°C° 0 mm 1 mps 752 mmHg 91%
    08:00 -2°C° 0 mm 2 mps 752 mmHg 89%
    09:00 -2°C° 0 mm 2 mps 752 mmHg 87%
    10:00 -1°C° 0 mm 2 mps 752 mmHg 85%
    11:00 -1°C° 0 mm 2 mps 752 mmHg 82%
    12:00 +1°C° 0 mm 2 mps 752 mmHg 78%
    13:00 +1°C° 0 mm 3 mps 752 mmHg 75%
    14:00 +1°C° 0 mm 2 mps 752 mmHg 76%
    15:00 +1°C° 0 mm 2 mps 752 mmHg 78%
    16:00 +1°C° 0 mm 2 mps 752 mmHg 80%
    17:00 +1°C° 0 mm 2 mps 752 mmHg 83%
    18:00 -1°C° 0 mm 2 mps 752 mmHg 86%
    19:00 -1°C° 0 mm 2 mps 752 mmHg 89%
    20:00 -1°C° 0 mm 2 mps 752 mmHg 89%
    21:00 -1°C° 0 mm 2 mps 752 mmHg 89%
    22:00 -1°C° 0 mm 2 mps 752 mmHg 89%
    23:00 -1°C° 0 mm 2 mps 752 mmHg 90%
    Show more